TimeCST,TemperatureF,Dew PointF,Humidity,Sea Level PressureIn,VisibilityMPH,Wind Direction,Wind SpeedMPH,Gust SpeedMPH,PrecipitationIn,Events,Conditions,WindDirDegrees,DateUTC
12:15 AM,37.4,32.0,81,29.82,10.0,WSW,8.1,-,N/A,,Clear,240,2013-01-19 06:15:00
12:35 AM,37.4,32.0,81,29.82,10.0,WSW,6.9,-,N/A,,Clear,240,2013-01-19 06:35:00
12:55 AM,37.4,32.0,81,29.82,10.0,WSW,9.2,-,N/A,,Clear,240,2013-01-19 06:55:00
1:15 AM,37.4,32.0,81,29.82,10.0,SW,9.2,-,N/A,,Clear,230,2013-01-19 07:15:00
1:35 AM,37.4,32.0,81,29.83,10.0,SW,9.2,-,N/A,,Clear,230,2013-01-19 07:35:00
1:55 AM,37.4,32.0,81,29.84,10.0,SW,9.2,-,N/A,,Clear,220,2013-01-19 07:55:00
2:15 AM,37.4,32.0,81,29.84,10.0,SW,11.5,-,N/A,,Clear,230,2013-01-19 08:15:00
2:35 AM,37.4,32.0,81,29.83,10.0,WSW,9.2,-,N/A,,Clear,240,2013-01-19 08:35:00
2:55 AM,37.4,32.0,81,29.82,10.0,WSW,6.9,-,N/A,,Clear,240,2013-01-19 08:55:00
3:15 AM,37.4,32.0,81,29.81,10.0,WSW,6.9,-,N/A,,Clear,240,2013-01-19 09:15:00
3:35 AM,37.4,32.0,81,29.82,10.0,SW,8.1,-,N/A,,Scattered Clouds,220,2013-01-19 09:35:00
3:55 AM,37.4,32.0,81,29.81,10.0,SSW,5.8,-,N/A,,Scattered Clouds,210,2013-01-19 09:55:00
4:15 AM,35.6,32.0,87,29.81,10.0,South,6.9,-,N/A,,Clear,190,2013-01-19 10:15:00
4:35 AM,35.6,32.0,87,29.80,10.0,South,5.8,-,N/A,,Clear,190,2013-01-19 10:35:00
4:55 AM,35.6,32.0,87,29.79,10.0,South,6.9,-,N/A,,Scattered Clouds,190,2013-01-19 10:55:00
5:15 AM,35.6,32.0,87,29.79,10.0,South,4.6,-,N/A,,Mostly Cloudy,180,2013-01-19 11:15:00
5:35 AM,35.6,32.0,87,29.79,10.0,South,5.8,-,N/A,,Overcast,190,2013-01-19 11:35:00
7:15 AM,35.6,32.0,87,29.77,10.0,SSW,8.1,-,N/A,,Overcast,200,2013-01-19 13:15:00
8:15 AM,37.4,32.0,81,29.78,10.0,SSW,8.1,-,N/A,,Overcast,210,2013-01-19 14:15:00
8:35 AM,37.4,32.0,81,29.76,10.0,South,4.6,-,N/A,,Overcast,170,2013-01-19 14:35:00
9:55 AM,37.4,32.0,81,29.77,10.0,SW,10.4,-,N/A,,Mostly Cloudy,220,2013-01-19 15:55:00
10:15 AM,37.4,32.0,81,29.75,10.0,SSW,11.5,-,N/A,,Scattered Clouds,210,2013-01-19 16:15:00
10:35 AM,39.2,32.0,75,29.75,10.0,SW,12.7,-,N/A,,Clear,220,2013-01-19 16:35:00
10:55 AM,39.2,32.0,75,29.74,10.0,SW,11.5,-,N/A,,Scattered Clouds,220,2013-01-19 16:55:00
11:15 AM,41.0,32.0,70,29.72,10.0,SSW,11.5,-,N/A,,Scattered Clouds,210,2013-01-19 17:15:00
11:35 AM,42.8,32.0,66,29.71,10.0,SW,13.8,17.3,N/A,,Scattered Clouds,230,2013-01-19 17:35:00
11:55 AM,42.8,32.0,66,29.70,10.0,SW,13.8,21.9,N/A,,Scattered Clouds,230,2013-01-19 17:55:00
12:15 PM,42.8,32.0,66,29.70,10.0,WSW,16.1,20.7,N/A,,Clear,240,2013-01-19 18:15:00
12:35 PM,42.8,32.0,66,29.69,10.0,WSW,15.0,18.4,N/A,,Scattered Clouds,250,2013-01-19 18:35:00
12:55 PM,42.8,32.0,66,29.69,10.0,WSW,16.1,19.6,N/A,,Clear,250,2013-01-19 18:55:00
1:55 PM,44.6,32.0,61,29.68,10.0,WSW,12.7,-,N/A,,Clear,250,2013-01-19 19:55:00
2:15 PM,44.6,32.0,61,29.69,10.0,West,18.4,23.0,N/A,,Scattered Clouds,260,2013-01-19 20:15:00
2:35 PM,46.4,32.0,57,29.69,10.0,West,20.7,26.5,N/A,,Scattered Clouds,260,2013-01-19 20:35:00
2:55 PM,46.4,32.0,57,29.68,10.0,WSW,15.0,-,N/A,,Clear,250,2013-01-19 20:55:00
3:15 PM,46.4,32.0,57,29.69,10.0,West,17.3,20.7,N/A,,Clear,260,2013-01-19 21:15:00
3:35 PM,46.4,32.0,57,29.70,10.0,West,17.3,24.2,N/A,,Clear,260,2013-01-19 21:35:00
3:55 PM,44.6,32.0,61,29.71,10.0,West,19.6,25.3,N/A,,Scattered Clouds,270,2013-01-19 21:55:00
4:15 PM,44.6,32.0,61,29.71,10.0,West,20.7,26.5,N/A,,Mostly Cloudy,270,2013-01-19 22:15:00
4:35 PM,44.6,32.0,61,29.72,10.0,West,17.3,26.5,N/A,,Mostly Cloudy,270,2013-01-19 22:35:00
4:55 PM,42.8,32.0,66,29.73,10.0,West,19.6,24.2,N/A,,Mostly Cloudy,270,2013-01-19 22:55:00
5:15 PM,42.8,30.2,61,29.73,10.0,West,25.3,32.2,N/A,,Overcast,270,2013-01-19 23:15:00
5:35 PM,41.0,30.2,65,29.75,10.0,West,19.6,32.2,N/A,,Mostly Cloudy,280,2013-01-19 23:35:00
5:55 PM,41.0,30.2,65,29.76,10.0,West,20.7,27.6,N/A,,Overcast,280,2013-01-19 23:55:00
6:15 PM,41.0,30.2,65,29.76,10.0,West,28.8,36.8,N/A,,Overcast,280,2013-01-20 00:15:00
6:35 PM,41.0,23.0,49,29.76,10.0,West,38.0,52.9,N/A,,Overcast,280,2013-01-20 00:35:00
6:55 PM,37.4,17.6,45,29.76,10.0,West,38.0,48.3,N/A,,Scattered Clouds,280,2013-01-20 00:55:00
7:15 PM,35.6,15.8,44,29.76,10.0,West,42.6,57.5,N/A,,Clear,270,2013-01-20 01:15:00
7:35 PM,33.8,12.2,41,29.79,10.0,West,33.4,50.6,N/A,,Clear,280,2013-01-20 01:35:00
7:55 PM,30.2,10.4,44,29.81,10.0,West,35.7,49.5,N/A,,Clear,280,2013-01-20 01:55:00
8:15 PM,28.4,10.4,47,29.84,10.0,WNW,27.6,46.0,N/A,,Clear,290,2013-01-20 02:15:00
8:55 PM,23.0,8.6,54,29.85,10.0,West,34.5,47.2,N/A,,Clear,280,2013-01-20 02:55:00
9:15 PM,23.0,8.6,54,29.88,10.0,West,25.3,43.7,N/A,,Clear,280,2013-01-20 03:15:00
9:35 PM,21.2,6.8,54,29.90,10.0,WNW,21.9,42.6,N/A,,Clear,290,2013-01-20 03:35:00
9:55 PM,21.2,5.0,50,29.91,10.0,West,27.6,39.1,N/A,,Clear,280,2013-01-20 03:55:00
10:15 PM,19.4,5.0,54,29.93,10.0,WNW,25.3,35.7,N/A,,Scattered Clouds,290,2013-01-20 04:15:00
10:35 PM,17.6,5.0,58,29.95,10.0,WNW,20.7,33.4,N/A,,Clear,290,2013-01-20 04:35:00
10:55 PM,17.6,3.2,53,29.96,10.0,WNW,24.2,34.5,N/A,,Clear,290,2013-01-20 04:55:00
11:15 PM,17.6,3.2,53,29.97,10.0,WNW,25.3,34.5,N/A,,Clear,290,2013-01-20 05:15:00
11:35 PM,15.8,3.2,58,29.98,10.0,WNW,24.2,34.5,N/A,,Clear,300,2013-01-20 05:35:00
11:55 PM,14.0,1.4,57,30.01,10.0,WNW,21.9,31.1,N/A,,Clear,300,2013-01-20 05:55:00